Weather in Phichit

Thailand     16°26′34″N   100°20′37″E
temp.,
°C
wind,
m/s
gust,
m/s
humid.,
%
clouds,
%
prec.,
mm/h
press.,
hPa
HPBL,
m
19 september, sun
sun1901:00+26sse128777 0.2 100920
04:00+25sse1191100 1.4 100811
07:00+26s118970 1.4 100962
10:00+30nw2273100 0.0 1010811
13:00+33wnw236088 0.0 10071297
16:00+33wnw225876 0.0 10051299
19:00+28ssw1173100 0.7 100712
22:00+25ssw4695100 5.3 1009146
20 september, mon
mon2001:00+25ssw1196100 5.3 100915
04:00+25e1296100 0.0 100730
07:00+25ese1294100 0.0 100895
10:00+28ssw118241 0.0 1010501
13:00+31wnw1169100 0.9 1007899
16:00+31ssw1167100 1.2 10041005
19:00+26s349293 4.6 100681
22:00+24ssw2295100 2.9 100950
21 september, tue
tue2101:00+24sse1193100 3.1 100713
04:00+24se2296100 3.8 100665
07:00+25se1192100 5.4 100867
10:00+28s1176100 3.8 1009330
13:00+30w2170100 9.9 1006731
16:00+29s1176100 3.2 1003289
19:00+26wsw1184100 4.3 100511
22:00+25s1188100 1.7 100711
22 september, wed
wed2201:00+25sw2290100 1.8 100642
04:00+23wnw1297100 3.4 100664
07:00+24n1294100 3.7 100789
10:00+28ene118264 1.9 1008234
13:00+31s126499 5.2 10051184
16:00+30ene2275100 1.9 1003246
19:00+25nw2292100 7.8 100546
22:00+25nnw118979 0.8 100711
23 september, thu
thu2301:00+24sw1294100 3.4 100626
04:00+23s119692 2.6 100634
07:00+24ne1195100 3.1 100780
10:00+28n1279100 0.8 1008532
13:00+30ene227293 1.3 1006832
16:00+30sse127170 1.5 1004749
19:00+27se228691 2.6 100614
22:00+25sse229299 5.6 100821